Regional Weather Roundup
Issued by NWS

Home | Current Version | Previous Version | Text Only | Print | Product List | Glossary On
Versions: 1 2 3 4 5 6 7 8 9 10 11 12 13 14 15 16 17 18 19 20 21 22 23 24 25 26 27 28 29 30 31 32 33 34 35 36 37 38 39 40 41 42 43 44 45 46 47 48 49 50
000
ASMX46 KSGX 212310
RWRMX

MEXICAN WEATHER ROUNDUP
NATIONAL WEATHER SERVICE SAN DIEGO CA
400 PM PDT THU AUG 21 2014

BAJA CALIFORNIA

CITY           SKY/WX    TMP DP  RH WIND       PRES   REMARKS
ENSENADA NW      N/A     75  32  20 W10       29.88S
LA PAZ         PTSUNNY   93  66  40 SW6       29.84  HX  96
LORETO         PTSUNNY   91  75  59 S7        29.79F HX 102
MEXICALI       TSTM      75  63  64 N13       29.87
S.J. DEL CABO  MOSUNNY   88  72  58 SE14      29.86F
TIJUANA        MOSUNNY   77  61  57 W13       29.92F

NORTHWESTERN MEXICO

CITY           SKY/WX    TMP DP  RH WIND       PRES   REMARKS
CHIHUAHUA      PTSUNNY   82  55  39 SE8       30.06
CULIACAN       PTSUNNY   95  75  52 CALM      29.83  HX 107
GUAYMAS        PTSUNNY   93  75  55 SW12      29.78  HX 104
HERMOSILLO     PTSUNNY   99  63  30 S7        29.84  HX 100
JUAREZ         MOSUNNY   95  59  30 S7        29.97
LOS MOCHIS     CLOUDY    86  72  62 SW9       29.84F
OBREGON        CLOUDY    84  73  70 W3        29.82

NORTHEASTERN MEXICO

CITY           SKY/WX    TMP DP  RH WIND       PRES   REMARKS
MATAMOROS      PTSUNNY   93  77  59 SE21      30.01  HX 107
MONTERREY      SUNNY     99  50  19 SE23      29.90F HX  95
NUEVO LAREDO   SUNNY    104  64  27 S14       29.90  HX 107
PIEDRAS NEGRAS MOSUNNY  102  68  32 SE8       29.91F HX 108
REYNOSA        PTSUNNY   93  68  43 SE12G23   29.94  HX  97
SALTILLO       MOSUNNY   86  52  30 N17       30.14F
TORREON        PTSUNNY   91  52  25 E7        30.00F
VICTORIA       PTSUNNY   86  61  42 SE10      30.01

WESTERN MEXICO

CITY           SKY/WX    TMP DP  RH WIND       PRES   REMARKS
AGUASCALIENTES MOSUNNY   73  41  31 NE16      30.22
COLIMA         PTSUNNY   81  73  78 W10       29.97R
DURANGO        CLOUDY    64  55  72 SW8       30.23R
GUADALAJARA    LGT RAIN  64  59  82 S12       30.14
MAZATLAN       MOSUNNY   88  73  62 SW9       29.81F HX  96
PTO. VALLARTA  PTSUNNY   90  77  66 SW7       29.83F HX 102
TEPIC          CLOUDY    79  70  73 CALM      30.10F
URUAPAN        PTSUNNY   70  61  73 W9        30.16F THUNDER
ZACATECAS      PTSUNNY   75  48  38 SE12G23   30.28S

CENTRAL MEXICO

CITY           SKY/WX    TMP DP  RH WIND       PRES   REMARKS
CUERNAVACA     PTSUNNY   81  50  34 CALM      30.08F
LEON           PTSUNNY   75  55  50 NE7       30.24F
MEXICO CITY    CLOUDY    72  46  40 SE12      30.27S
MORELIA        PTSUNNY   72  57  60 CALM      30.19
POZA RICA      PTSUNNY   91  72  52 SE9       29.98F HX  98
PUEBLA         CLOUDY    66  46  48 S8        30.34S
QUERETARO      PTSUNNY   77  57  50 E17       30.25F
S. LUIS POTOSI MOSUNNY   73  48  40 SE16      30.26F
TAMPICO        PTSUNNY   82  70  65 NE8       29.99F
TOLUCA         CLOUDY    63  48  59 S12       30.35F
VERACRUZ       MOSUNNY   86  73  66 N7        29.96F

SOUTHERN MEXICO

CITY           SKY/WX    TMP DP  RH WIND       PRES   REMARKS
ACAPULCO       CLOUDY    84  77  79 SE7       29.86F
B. DE HUATULCO CLOUDY    79  72  78 CALM      29.95
MINATITLAN     MOSUNNY   86  68  54 NW16      29.89
OAXACA         PTSUNNY   70  59  68 S6        30.19
PTO. ESCONDIDO CLOUDY    81  73  78 SE9       30.00F
TAPACHULA      PTSUNNY   75  73  94 NE6       29.95S
TUX. GUTIERREZ PTSUNNY   86  70  58 NW10      29.92R
VILLAHERMOSA   MOSUNNY   93  70  46 E12       29.89S HX  99
ZIHUATANEJO    LGT RAIN  84  75  74 NE12      29.88R

YUCATAN PENINSULA

CITY           SKY/WX    TMP DP  RH WIND       PRES   REMARKS
CAMPECHE       PTSUNNY   90  81  74 NW12G23   29.89F HX 108
CANCUN         PTSUNNY   86  77  74 E7        29.98S HX  97
CHETUMAL       MOSUNNY   91  77  62 E12       29.92F HX 105
C. DEL CARMEN  RAIN      75  73  94 E18G52    30.00  VSB 1
COZUMEL        PTSUNNY   84  77  79 NE14      29.97S
MERIDA         CLOUDY    90  72  55 NE9       29.97R HX  96

$$




USA.gov is the U.S. government's official web portal to all federal, state and local government web resources and services.